Weather reports worldwide

Advertisment
Belgrad, Serbia (13274): temperature & dewpoint: 10.06.2019 13:00:00 - 16.06.2019 13:00:00 (CEST)Belgrad, Serbia (13274): wind speed: 10.06.2019 13:00:00 - 16.06.2019 13:00:00 (CEST)Belgrad, Serbia (13274): wind direction: 10.06.2019 13:00:00 - 16.06.2019 13:00:00 (CEST)Belgrad, Serbia (13274): reduced air pressure: 10.06.2019 13:00:00 - 16.06.2019 13:00:00 (CEST)Belgrad, Serbia (13274): visibility: 10.06.2019 13:00:00 - 16.06.2019 13:00:00 (CEST)
Date & Time tt [°C] td [°C] ff [km/h] ff [kn] dd ppp [hPa] vv [km]
16.06.2019 13:00:00 - - - - - - -
16.06.2019 12:00:00 - - - - - - -
16.06.2019 11:00:00 30,3 19,9 11 6 ESE 1012,2 20
16.06.2019 10:00:00 - - - - - - -
16.06.2019 09:00:00 - - - - - - -
16.06.2019 08:00:00 25,6 18,0 11 6 ESE 1011,9 20
16.06.2019 07:00:00 - - - - - - -
16.06.2019 06:00:00 - - - - - - -
16.06.2019 05:00:00 22,6 18,7 7 4 SE 1011,6 20
16.06.2019 04:00:00 - - - - - - -
16.06.2019 03:00:00 - - - - - - -
16.06.2019 02:00:00 24,9 19,7 11 6 SSE 1011,9 20
16.06.2019 01:00:00 - - - - - - -
16.06.2019 00:00:00 - - - - - - -
15.06.2019 23:00:00 25,8 20,2 11 6 ESE 1012,9 20
15.06.2019 22:00:00 - - - - - - -
15.06.2019 21:00:00 - - - - - - -
15.06.2019 20:00:00 29,4 21,2 7 4 E 1012,0 20
15.06.2019 19:00:00 - - - - - - -
15.06.2019 18:00:00 - - - - - - -
15.06.2019 17:00:00 33,4 19,1 7 4 SE 1012,5 20
15.06.2019 16:00:00 - - - - - - -
15.06.2019 15:00:00 - - - - - - -
15.06.2019 14:00:00 32,8 20,3 7 4 SE 1014,1 20
15.06.2019 13:00:00 - - - - - - -
15.06.2019 12:00:00 - - - - - - -
15.06.2019 11:00:00 31,5 20,2 7 4 SSE 1015,5 20
15.06.2019 10:00:00 - - - - - - -
15.06.2019 09:00:00 - - - - - - -
15.06.2019 08:00:00 26,0 17,0 4 2 SE 1016,0 20
15.06.2019 07:00:00 - - - - - - -
15.06.2019 06:00:00 - - - - - - -
15.06.2019 05:00:00 21,3 15,4 4 2 SSE 1015,8 30
15.06.2019 04:00:00 - - - - - - -
15.06.2019 03:00:00 - - - - - - -
15.06.2019 02:00:00 22,6 15,3 4 2 SSE 1016,4 30
15.06.2019 01:00:00 - - - - - - -
15.06.2019 00:00:00 - - - - - - -
14.06.2019 23:00:00 25,2 15,1 4 2 SE 1017,2 30
14.06.2019 22:00:00 - - - - - - -
14.06.2019 21:00:00 - - - - - - -
14.06.2019 20:00:00 29,8 13,0 4 2 W 1016,3 30
14.06.2019 19:00:00 - - - - - - -
14.06.2019 18:00:00 - - - - - - -
14.06.2019 17:00:00 32,9 14,0 7 4 N 1016,7 30
14.06.2019 16:00:00 - - - - - - -
14.06.2019 15:00:00 - - - - - - -
14.06.2019 14:00:00 31,6 13,1 7 4 W 1017,4 40
14.06.2019 13:00:00 - - - - - - -
14.06.2019 12:00:00 - - - - - - -
14.06.2019 11:00:00 28,8 15,4 7 4 W 1018,0 30
14.06.2019 10:00:00 - - - - - - -
14.06.2019 09:00:00 - - - - - - -
14.06.2019 08:00:00 25,4 18,0 7 4 W 1017,1 30
14.06.2019 07:00:00 - - - - - - -
14.06.2019 06:00:00 - - - - - - -
14.06.2019 05:00:00 23,1 21,0 7 4 WSW 1015,7 30
14.06.2019 04:00:00 - - - - - - -
14.06.2019 03:00:00 - - - - - - -
14.06.2019 02:00:00 25,0 20,7 4 2 S 1013,9 30
14.06.2019 01:00:00 - - - - - - -
14.06.2019 00:00:00 - - - - - - -
13.06.2019 23:00:00 26,8 21,6 7 4 SE 1013,6 30
13.06.2019 22:00:00 - - - - - - -
13.06.2019 21:00:00 - - - - - - -
13.06.2019 20:00:00 30,9 19,3 7 4 SE 1012,5 30
13.06.2019 19:00:00 - - - - - - -
13.06.2019 18:00:00 - - - - - - -
13.06.2019 17:00:00 34,0 20,2 7 4 SE 1012,0 30
13.06.2019 16:00:00 - - - - - - -
13.06.2019 15:00:00 - - - - - - -
13.06.2019 14:00:00 33,2 20,2 7 4 ESE 1012,7 40
13.06.2019 13:00:00 - - - - - - -
13.06.2019 12:00:00 - - - - - - -
13.06.2019 11:00:00 30,2 21,2 7 4 SE 1013,3 40
13.06.2019 10:00:00 - - - - - - -
13.06.2019 09:00:00 - - - - - - -
13.06.2019 08:00:00 24,6 18,5 11 6 SE 1013,4 40
13.06.2019 07:00:00 - - - - - - -
13.06.2019 06:00:00 - - - - - - -
13.06.2019 05:00:00 22,1 18,2 7 4 SSE 1012,2 30
13.06.2019 04:00:00 - - - - - - -
13.06.2019 03:00:00 - - - - - - -
13.06.2019 02:00:00 23,8 17,8 11 6 SE 1012,4 30
13.06.2019 01:00:00 - - - - - - -
13.06.2019 00:00:00 - - - - - - -
12.06.2019 23:00:00 25,2 18,4 7 4 SE 1012,8 30
12.06.2019 22:00:00 - - - - - - -
12.06.2019 21:00:00 - - - - - - -
12.06.2019 20:00:00 28,0 20,2 4 2 SE 1012,1 30
12.06.2019 19:00:00 - - - - - - -
12.06.2019 18:00:00 - - - - - - -
12.06.2019 17:00:00 30,4 18,3 14 8 SE 1011,7 30
12.06.2019 16:00:00 - - - - - - -
12.06.2019 15:00:00 - - - - - - -
12.06.2019 14:00:00 29,4 19,0 14 8 SE 1013,3 30
12.06.2019 13:00:00 - - - - - - -
12.06.2019 12:00:00 - - - - - - -
12.06.2019 11:00:00 26,8 18,3 7 4 ESE 1014,1 25
12.06.2019 10:00:00 - - - - - - -
12.06.2019 09:00:00 - - - - - - -
12.06.2019 08:00:00 22,3 17,5 7 4 ESE 1013,8 20
12.06.2019 07:00:00 - - - - - - -
12.06.2019 06:00:00 - - - - - - -
12.06.2019 05:00:00 20,1 18,6 7 4 ESE 1013,4 20
12.06.2019 04:00:00 - - - - - - -
12.06.2019 03:00:00 - - - - - - -
12.06.2019 02:00:00 21,7 18,2 7 4 SE 1013,7 20
12.06.2019 01:00:00 - - - - - - -
12.06.2019 00:00:00 - - - - - - -
11.06.2019 23:00:00 23,0 18,5 7 4 ESE 1013,5 20
11.06.2019 22:00:00 - - - - - - -
11.06.2019 21:00:00 - - - - - - -
11.06.2019 20:00:00 25,2 18,7 7 4 SE 1013,0 20
11.06.2019 19:00:00 - - - - - - -
11.06.2019 18:00:00 - - - - - - -
11.06.2019 17:00:00 28,4 19,8 7 4 ENE 1011,8 30
11.06.2019 16:00:00 - - - - - - -
11.06.2019 15:00:00 - - - - - - -
11.06.2019 14:00:00 30,0 16,6 7 4 ESE 1012,1 30
11.06.2019 13:00:00 - - - - - - -
11.06.2019 12:00:00 - - - - - - -
11.06.2019 11:00:00 27,9 17,5 11 6 SE 1013,0 20
11.06.2019 10:00:00 - - - - - - -
11.06.2019 09:00:00 - - - - - - -
11.06.2019 08:00:00 23,9 17,1 7 4 SE 1012,7 20
11.06.2019 07:00:00 - - - - - - -
11.06.2019 06:00:00 - - - - - - -
11.06.2019 05:00:00 20,7 16,5 4 2 SSW 1012,2 20
11.06.2019 04:00:00 - - - - - - -
11.06.2019 03:00:00 - - - - - - -
11.06.2019 02:00:00 22,5 16,9 7 4 SE 1012,6 20
11.06.2019 01:00:00 - - - - - - -
11.06.2019 00:00:00 - - - - - - -
10.06.2019 23:00:00 23,7 18,5 7 4 SSE 1013,1 20
10.06.2019 22:00:00 - - - - - - -
10.06.2019 21:00:00 - - - - - - -
10.06.2019 20:00:00 26,8 19,1 7 4 ESE 1013,1 20
10.06.2019 19:00:00 - - - - - - -
10.06.2019 18:00:00 - - - - - - -
10.06.2019 17:00:00 29,9 18,9 4 2 ESE 1013,3 20
10.06.2019 16:00:00 - - - - - - -
10.06.2019 15:00:00 - - - - - - -
10.06.2019 14:00:00 28,9 19,2 11 6 NNE 1015,1 20
10.06.2019 13:00:00 - - - - - - -

tt = temperature
td = dewpoint
ff = wind speed
dd = wind direction
ppp = reduced air pressure
vv = visibility

Next stations